Location: Village de las Huertas
(35.3014°N, 106.4095°W)
Time: 17:02:11
(UTC+00:00)

ATLAS CENTAUR R/B - Pass Details

Date: 29 October 2020
Orbit: 478 x 667 km, 64.7° (Epoch: 22 November)

Event Time Altitude Azimuth Distance (km) Brightness Sun altitude
Rises 12:40:27 0° 221° (SW) 2,687 4.5 -9.7°
Reaches altitude 10° 12:42:45 10° 227° (SW) 1,768 3.6 -9.2°
Maximum altitude 12:46:33 46° 302° (WNW) 688 1.4 -8.4°
Drops below altitude 10° 12:50:12 10° 17° (NNE) 1,695 3.9 -7.7°
Sets 12:52:22 0° 24° (NNE) 2,563 4.9 -7.3°
